Content
SEND FEEDBACK

Daily
Averages
Monthly
Summary
United States of America

TRAILWATERS RECREATION AREA, SOUTH DAKOTA


Home > North America > United States > South Dakota
Elevation: 445 meters     Latitude: 44 04N     Longitude: 099 28W

WEATHER
 
SELECT A DAY
Number of Records: 179,787;   Date Range: 1/1/95 - 8/28/14
 
SHARE

PRINT THIS DATA

[ ← Previous Day ]
WEATHER ALMANAC - 31 JANUARY, 2013
[ Next Day → ]
[ °F ]   °C
Weather ElementAverageHighLow
Temperature-19.2 °C-17.2 °C (2:52 am)-21.1 °C (8:52 pm)
Dewpoint-24.4 °C-22.2 °C (3:52 am)-26.7 °C (10:52 am)
Humidity64.6 %72 % (10:52 pm)59 % (10:52 am)
Barometer1028.1 hPa1031.5 hPa (11:52 am)1019 hPa (1:52 am)
Wind Speed24.1 km/h46.3 km/h (11:52 am)
Wind Gust57.5 km/h (10:52 am)
Weather ElementAverage
Wind DirectionWNW (280.4 °)

Weather ElementTotal
Precipitation---
Heating Degree Days37.5 (Base 18.3)
Averaged from 23 records on 31 January, 2013
WEATHER CONDITIONS BREAKOUT
WIND DIRECTION BREAKOUT
WEATHER BY HOUR - 31 JANUARY, 2013
[ °F ]   °C
Local TimeTemperatureDewpointHumidityBarometerVisibilityWind DirectionWind SpeedGust SpeedPrecipitationEventsConditions
1:52 AM-17.8 °C-23.9 °C60 %1019 hPaNNW (330°)24.1 km/h
2:52 AM-17.2 °C-22.8 °C63 %1020 hPaNNW (340°)27.8 km/h38.9 km/h
3:52 AM-17.8 °C-22.2 °C69 %1020.3 hPaNNW (330°)22.2 km/h
4:52 AM-17.2 °C-22.2 °C66 %1021.3 hPaNNW (330°)27.8 km/h37 km/h
5:52 AM-18.3 °C-22.8 °C69 %1022.7 hPaNNW (340°)29.6 km/h40.7 km/h
6:52 AM-18.9 °C-23.3 °C69 %1024.7 hPaNNW (340°)31.5 km/h48.1 km/h
7:52 AM-20 °C-24.4 °C69 %1026.1 hPaNNW (330°)31.5 km/h46.3 km/h
8:52 AM-20.6 °C-25.6 °C65 %1028.1 hPaNNW (340°)37 km/h50.1 km/h
9:52 AM-20.6 °C-26.1 °C62 %1029.5 hPaNNW (330°)33.3 km/h44.4 km/h
10:52 AM-20.6 °C-26.7 °C59 %1030.5 hPaNW (320°)37 km/h57.5 km/h
11:52 AM-20.6 °C-26.7 °C59 %1031.5 hPaNW (320°)46.3 km/h55.5 km/h
12:52 PM-20 °C-26.1 °C59 %1031.5 hPaNW (310°)37 km/h51.8 km/h
1:52 PM-18.9 °C-25 °C60 %1030.8 hPaNW (320°)31.5 km/h48.1 km/h
2:52 PM-18.3 °C-24.4 °C60 %1030.5 hPaWNW (300°)37 km/h
3:52 PM-17.8 °C-23.9 °C60 %1030.8 hPaNW (320°)25.9 km/h
4:52 PM-18.3 °C-23.9 °C62 %1030.8 hPaNW (310°)22.2 km/h
5:52 PM-18.9 °C-24.4 °C63 %1031.2 hPaWNW (300°)20.4 km/h
6:52 PM-19.4 °C-25 °C62 %1031.2 hPaWest (280°)13 km/h
7:52 PM-20.6 °C-25 °C69 %1031.5 hPaWest (280°)7.4 km/h
8:52 PM-21.1 °C-25.6 °C68 %1031.2 hPaCalm
9:52 PM-20.6 °C-25 °C69 %1031.2 hPaSSW (210°)5.6 km/h
10:52 PM-19.4 °C-23.3 °C72 %1030.5 hPaCalm
11:52 PM-18.9 °C-22.8 °C72 %1029.5 hPaSouth (170°)7.4 km/h
Hourly data recorded from K9V9, located 0 kilometers away from Trailwaters Recreation Area, South Dakota







STORIES FROM OUR PARTNERS